SL-16 DEB, 22337

Orbit data source: Space-Track

SL-16 DEB, 22337 is space debris in LEO originally from a launch on Fri, 25 Dec 1992 UTC launched from the Tyuratam Missile And Space Complex (TTMTR). Debris objects in space refer to the collection of defunct objects orbiting the Earth. Examples of debris include non-operational satellites, rocket bodies, and fragments generated from explosions, collisions, or faulty payload assembly.

Loading next visibility...
Identifier
22337, 1992-093AA
Orbit
LEO
Country
Flag of CISCIS
Related business
Manufacturer
Unknown
Mission
Spacecraft
Bus & Motor
Unknown
Mass
Unknown
Launch date (UTC)
1992-12-25 (33 years ago)
Launch vehicle
Unknown
Launch site
Tyuratam Missile And Space Complex (TTMTR)
Object type
Payload
Rocket body
Debris
Shape & HBR
Unknown shape, 0.8 m
Radar Cross Section
Medium (>0.1 m² and <1 m²)

Expand to show TLE details & history
Last TLE update: 9 hours ago

TLE from 9 hours ago
0 SL-16 DEB
1 22337U 92093AA  26036.91840791  .00000047  00000-0  72608-4 0  9994
2 22337  71.2874 216.8055 0145984  88.6620 273.1207 13.84557171671475
Epoch: 2026-02-05T22:02Z
TLE epoch observation values (Epoch: 2026-02-05T22:02:30.443Z)
Latitude
-0.00001°
Longitude
110.11491°
Altitude
945.888 km
Speed
7.381 km/s
True Right ascension
14h 27m 13s
True Declination
0° 00' 00"
Sunlit
Object was in daylight at epoch
Visualization orbit readout
Latitude
Unknown
Longitude
Unknown
Altitude
Unknown
Speed
Unknown
Apparent Right ascension
Unknown
Apparent Declination
Unknown
Sunlit
N/A
Visualization observer readout
Local Sidereal Time
08:51:44
Azimuth
Unknown
Elevation
Unknown
Doppler factor
Unknown
Orbital elements
Apogee altitude
1,052.61 km
Perigee altitude
838.778 km
Semi-major axis
7,323.831 km
Eccentricity
0.0146
Inclination
71.2874°
RAAN
216.8055°
Arg. of periapsis
88.662°
True anomaly
271.4489°
Mean anomaly
273.1207°
Eccentric anomaly
272.28494°
Mean motion
3.46287 °/min
Orbital period
103.96 mins
BSTAR
0.000072608
Loading maneuver chart data...
Computing Atmospheric mass density...

Documentation

Showing up to 5 results
|